Location: Newark
(40.9833°N, 0.0333°W)
Time: 09:15:01
(UTC+00:00)

Transit 4A - Pass Details

Date: 01 November 2020
Orbit: 862 x 982 km, 66.8° (Epoch: 26 November)

Event Time Altitude Azimuth Distance (km) Brightness Sun altitude
Rises 23:07:23 0° 329° (NNW) 3,692 - -62.7°
Reaches altitude 10° 23:09:58 10° 330° (NNW) 2,736 - -62.8°
Maximum altitude 23:16:24 88° 242° (WSW) 973 - -63.2°
Drops below altitude 10° 23:22:39 10° 153° (SSE) 2,663 - -63.4°
Sets 23:25:09 0° 153° (SSE) 3,588 - -63.5°
